Information on these data can be found in provided Readme document
Contact Info: Zachary Fasnacht (zachary.fasnacht@ssaihq.com); Nickolay Krotkov (nickolay.a.krotkov@nasa.gov); Lok Lamsal (lok.lamsal@nasa.gov)

FillValue: -999.
ScaleFactor: 1e15
Units: molecules/cm^2

Date(yyyy-mm-dd),City,Country,LonCenter,LatCenter,BoundingCoordinates,Median,Q1,Q3,Mean,Baseline_Median,Baseline_Q1,Baseline_Q3,Baseline_Mean,NumGoodSamples,NumTotalSamples
2015-01-01,Conakry,Guinea,-13.5784,9.6412,[-14.0784 9.1412 -13.0784 10.1412],0.949,0.564,1.511,1.019,0.945,0.534,1.496,1.04,229.0,512.0
2015-01-02,Conakry,Guinea,-13.5784,9.6412,[-14.0784 9.1412 -13.0784 10.1412],1.002,0.603,1.537,1.07,0.964,0.542,1.554,1.065,209.0,530.0
2015-01-03,Conakry,Guinea,-13.5784,9.6412,[-14.0784 9.1412 -13.0784 10.1412],0.959,0.597,1.523,1.042,0.93,0.552,1.558,1.07,224.0,499.0
2015-01-04,Conakry,Guinea,-13.5784,9.6412,[-14.0784 9.1412 -13.0784 10.1412],1.051,0.735,1.595,1.173,0.963,0.567,1.605,1.09,203.0,527.0
2015-01-05,Conakry,Guinea,-13.5784,9.6412,[-14.0784 9.1412 -13.0784 10.1412],1.051,0.735,1.595,1.178,0.984,0.58,1.581,1.102,190.0,500.0
2015-01-06,Conakry,Guinea,-13.5784,9.6412,[-14.0784 9.1412 -13.0784 10.1412],1.026,0.735,1.56,1.125,0.993,0.566,1.586,1.09,174.0,519.0
2015-01-07,Conakry,Guinea,-13.5784,9.6412,[-14.0784 9.1412 -13.0784 10.1412],1.078,0.753,1.537,1.137,1.041,0.532,1.655,1.121,168.0,511.0
2015-01-08,Conakry,Guinea,-13.5784,9.6412,[-14.0784 9.1412 -13.0784 10.1412],1.189,0.764,1.579,1.198,1.098,0.556,1.663,1.147,197.0,512.0
2015-01-09,Conakry,Guinea,-13.5784,9.6412,[-14.0784 9.1412 -13.0784 10.1412],1.052,0.735,1.476,1.135,1.02,0.528,1.662,1.132,179.0,490.0
2015-01-10,Conakry,Guinea,-13.5784,9.6412,[-14.0784 9.1412 -13.0784 10.1412],1.052,0.735,1.476,1.135,1.0,0.501,1.582,1.088,179.0,443.0
2015-01-11,Conakry,Guinea,-13.5784,9.6412,[-14.0784 9.1412 -13.0784 10.1412],1.189,0.733,1.515,1.167,1.003,0.51,1.567,1.069,165.0,472.0
2015-01-12,Conakry,Guinea,-13.5784,9.6412,[-14.0784 9.1412 -13.0784 10.1412],1.189,0.733,1.515,1.165,1.001,0.479,1.544,1.054,167.0,438.0
2015-01-13,Conakry,Guinea,-13.5784,9.6412,[-14.0784 9.1412 -13.0784 10.1412],1.276,0.756,1.558,1.222,1.001,0.481,1.537,1.053,147.0,473.0
2015-01-14,Conakry,Guinea,-13.5784,9.6412,[-14.0784 9.1412 -13.0784 10.1412],1.012,0.549,1.509,1.057,0.961,0.452,1.536,1.024,134.0,448.0
2015-01-15,Conakry,Guinea,-13.5784,9.6412,[-14.0784 9.1412 -13.0784 10.1412],1.032,0.493,1.476,1.087,0.975,0.461,1.537,1.039,153.0,468.0
2015-01-16,Conakry,Guinea,-13.5784,9.6412,[-14.0784 9.1412 -13.0784 10.1412],1.012,0.465,1.438,1.022,0.994,0.451,1.563,1.04,137.0,463.0
2015-01-17,Conakry,Guinea,-13.5784,9.6412,[-14.0784 9.1412 -13.0784 10.1412],1.065,0.486,1.398,1.024,0.992,0.461,1.544,1.023,165.0,453.0
2015-01-18,Conakry,Guinea,-13.5784,9.6412,[-14.0784 9.1412 -13.0784 10.1412],1.077,0.493,1.457,1.076,0.979,0.458,1.534,1.019,150.0,471.0
2015-01-19,Conakry,Guinea,-13.5784,9.6412,[-14.0784 9.1412 -13.0784 10.1412],0.859,0.46,1.347,0.966,0.95,0.458,1.527,1.007,170.0,441.0
2015-01-20,Conakry,Guinea,-13.5784,9.6412,[-14.0784 9.1412 -13.0784 10.1412],0.859,0.46,1.347,0.966,0.985,0.48,1.561,1.039,170.0,470.0
2015-01-21,Conakry,Guinea,-13.5784,9.6412,[-14.0784 9.1412 -13.0784 10.1412],0.733,0.422,1.322,0.893,0.976,0.489,1.565,1.025,182.0,444.0
2015-01-22,Conakry,Guinea,-13.5784,9.6412,[-14.0784 9.1412 -13.0784 10.1412],0.657,0.358,1.269,0.823,0.986,0.513,1.528,1.052,173.0,465.0
2015-01-23,Conakry,Guinea,-13.5784,9.6412,[-14.0784 9.1412 -13.0784 10.1412],0.616,0.298,1.127,0.725,0.92,0.491,1.557,1.016,168.0,456.0
2015-01-24,Conakry,Guinea,-13.5784,9.6412,[-14.0784 9.1412 -13.0784 10.1412],0.616,0.298,1.143,0.742,0.926,0.464,1.518,0.994,198.0,494.0
2015-01-25,Conakry,Guinea,-13.5784,9.6412,[-14.0784 9.1412 -13.0784 10.1412],0.616,0.298,1.143,0.742,0.926,0.404,1.515,0.99,198.0,531.0
2015-01-26,Conakry,Guinea,-13.5784,9.6412,[-14.0784 9.1412 -13.0784 10.1412],0.626,0.325,1.127,0.749,0.861,0.405,1.483,0.955,218.0,504.0
2015-01-27,Conakry,Guinea,-13.5784,9.6412,[-14.0784 9.1412 -13.0784 10.1412],0.627,0.325,1.127,0.749,0.854,0.4,1.467,0.956,216.0,532.0
2015-01-28,Conakry,Guinea,-13.5784,9.6412,[-14.0784 9.1412 -13.0784 10.1412],0.616,0.295,1.075,0.709,0.844,0.389,1.415,0.933,229.0,496.0
2015-01-29,Conakry,Guinea,-13.5784,9.6412,[-14.0784 9.1412 -13.0784 10.1412],0.686,0.298,1.127,0.744,0.849,0.374,1.437,0.932,209.0,532.0
2015-01-30,Conakry,Guinea,-13.5784,9.6412,[-14.0784 9.1412 -13.0784 10.1412],0.635,0.288,1.016,0.666,0.832,0.368,1.396,0.905,200.0,510.0
2015-01-31,Conakry,Guinea,-13.5784,9.6412,[-14.0784 9.1412 -13.0784 10.1412],0.587,0.271,0.973,0.63,0.784,0.351,1.341,0.866,223.0,527.0
2015-02-01,Conakry,Guinea,-13.5784,9.6412,[-14.0784 9.1412 -13.0784 10.1412],0.533,0.206,0.875,0.58,0.756,0.318,1.275,0.832,207.0,523.0
2015-02-02,Conakry,Guinea,-13.5784,9.6412,[-14.0784 9.1412 -13.0784 10.1412],0.526,0.184,0.875,0.554,0.742,0.326,1.212,0.803,233.0,515.0
2015-02-03,Conakry,Guinea,-13.5784,9.6412,[-14.0784 9.1412 -13.0784 10.1412],0.533,0.202,0.91,0.571,0.75,0.335,1.212,0.804,231.0,532.0
2015-02-04,Conakry,Guinea,-13.5784,9.6412,[-14.0784 9.1412 -13.0784 10.1412],0.542,0.242,0.918,0.587,0.687,0.3,1.108,0.755,251.0,500.0
2015-02-05,Conakry,Guinea,-13.5784,9.6412,[-14.0784 9.1412 -13.0784 10.1412],0.527,0.206,0.875,0.557,0.714,0.33,1.135,0.783,230.0,529.0
2015-02-06,Conakry,Guinea,-13.5784,9.6412,[-14.0784 9.1412 -13.0784 10.1412],0.483,0.206,0.875,0.529,0.688,0.308,1.1,0.728,229.0,502.0
2015-02-07,Conakry,Guinea,-13.5784,9.6412,[-14.0784 9.1412 -13.0784 10.1412],0.436,0.177,0.812,0.485,0.672,0.298,1.056,0.706,245.0,522.0
2015-02-08,Conakry,Guinea,-13.5784,9.6412,[-14.0784 9.1412 -13.0784 10.1412],0.415,0.169,0.788,0.446,0.681,0.323,1.043,0.712,238.0,512.0
2015-02-09,Conakry,Guinea,-13.5784,9.6412,[-14.0784 9.1412 -13.0784 10.1412],0.423,0.169,0.788,0.447,0.665,0.318,1.045,0.701,239.0,514.0
2015-02-10,Conakry,Guinea,-13.5784,9.6412,[-14.0784 9.1412 -13.0784 10.1412],0.376,0.159,0.721,0.409,0.672,0.319,1.044,0.698,219.0,494.0
2015-02-11,Conakry,Guinea,-13.5784,9.6412,[-14.0784 9.1412 -13.0784 10.1412],0.376,0.159,0.721,0.409,0.644,0.303,1.026,0.676,219.0,448.0
2015-02-12,Conakry,Guinea,-13.5784,9.6412,[-14.0784 9.1412 -13.0784 10.1412],0.376,0.159,0.721,0.412,0.637,0.28,1.0,0.656,206.0,477.0
2015-02-13,Conakry,Guinea,-13.5784,9.6412,[-14.0784 9.1412 -13.0784 10.1412],0.469,0.162,0.788,0.453,0.67,0.301,1.022,0.664,221.0,440.0
2015-02-14,Conakry,Guinea,-13.5784,9.6412,[-14.0784 9.1412 -13.0784 10.1412],0.471,0.162,0.798,0.456,0.651,0.251,0.996,0.645,202.0,471.0
2015-02-15,Conakry,Guinea,-13.5784,9.6412,[-14.0784 9.1412 -13.0784 10.1412],0.48,0.159,0.798,0.452,0.643,0.255,0.996,0.637,188.0,449.0
2015-02-16,Conakry,Guinea,-13.5784,9.6412,[-14.0784 9.1412 -13.0784 10.1412],0.547,0.159,0.812,0.484,0.641,0.249,0.985,0.63,207.0,467.0
2015-02-17,Conakry,Guinea,-13.5784,9.6412,[-14.0784 9.1412 -13.0784 10.1412],0.547,0.162,0.811,0.496,0.611,0.239,0.97,0.614,191.0,460.0
2015-02-18,Conakry,Guinea,-13.5784,9.6412,[-14.0784 9.1412 -13.0784 10.1412],0.497,0.159,0.812,0.493,0.574,0.211,0.942,0.585,201.0,451.0
2015-02-19,Conakry,Guinea,-13.5784,9.6412,[-14.0784 9.1412 -13.0784 10.1412],0.48,0.109,0.811,0.469,0.558,0.204,0.936,0.578,206.0,468.0
2015-02-20,Conakry,Guinea,-13.5784,9.6412,[-14.0784 9.1412 -13.0784 10.1412],0.476,0.112,0.802,0.472,0.521,0.163,0.892,0.53,225.0,438.0
2015-02-21,Conakry,Guinea,-13.5784,9.6412,[-14.0784 9.1412 -13.0784 10.1412],0.547,0.111,0.79,0.503,0.527,0.144,0.885,0.533,211.0,468.0
2015-02-22,Conakry,Guinea,-13.5784,9.6412,[-14.0784 9.1412 -13.0784 10.1412],0.513,0.112,0.802,0.51,0.503,0.143,0.883,0.53,193.0,441.0
2015-02-23,Conakry,Guinea,-13.5784,9.6412,[-14.0784 9.1412 -13.0784 10.1412],0.527,0.111,0.855,0.535,0.463,0.118,0.868,0.484,209.0,463.0
2015-02-24,Conakry,Guinea,-13.5784,9.6412,[-14.0784 9.1412 -13.0784 10.1412],0.548,0.121,0.87,0.543,0.481,0.118,0.871,0.492,231.0,454.0
2015-02-25,Conakry,Guinea,-13.5784,9.6412,[-14.0784 9.1412 -13.0784 10.1412],0.55,0.121,0.893,0.56,0.461,0.094,0.831,0.467,261.0,491.0
2015-02-26,Conakry,Guinea,-13.5784,9.6412,[-14.0784 9.1412 -13.0784 10.1412],0.55,0.121,0.893,0.554,0.442,0.087,0.828,0.455,289.0,528.0
2015-02-27,Conakry,Guinea,-13.5784,9.6412,[-14.0784 9.1412 -13.0784 10.1412],0.527,0.128,0.887,0.536,0.415,0.073,0.821,0.443,308.0,502.0
2015-02-28,Conakry,Guinea,-13.5784,9.6412,[-14.0784 9.1412 -13.0784 10.1412],0.478,0.111,0.893,0.515,0.414,0.074,0.812,0.433,293.0,529.0
2015-03-01,Conakry,Guinea,-13.5784,9.6412,[-14.0784 9.1412 -13.0784 10.1412],0.497,0.111,0.857,0.519,0.411,0.048,0.776,0.429,306.0,494.0
2015-03-02,Conakry,Guinea,-13.5784,9.6412,[-14.0784 9.1412 -13.0784 10.1412],0.51,0.129,0.9,0.537,0.392,0.03,0.741,0.413,287.0,527.0
2015-03-03,Conakry,Guinea,-13.5784,9.6412,[-14.0784 9.1412 -13.0784 10.1412],0.527,0.182,0.863,0.537,0.408,0.039,0.752,0.415,276.0,503.0
2015-03-04,Conakry,Guinea,-13.5784,9.6412,[-14.0784 9.1412 -13.0784 10.1412],0.527,0.2,0.857,0.546,0.392,0.028,0.728,0.405,298.0,522.0
2015-03-05,Conakry,Guinea,-13.5784,9.6412,[-14.0784 9.1412 -13.0784 10.1412],0.558,0.202,0.88,0.558,0.434,0.057,0.751,0.426,280.0,516.0
2015-03-06,Conakry,Guinea,-13.5784,9.6412,[-14.0784 9.1412 -13.0784 10.1412],0.527,0.192,0.857,0.545,0.421,0.06,0.754,0.43,280.0,509.0
2015-03-07,Conakry,Guinea,-13.5784,9.6412,[-14.0784 9.1412 -13.0784 10.1412],0.527,0.191,0.859,0.54,0.424,0.08,0.765,0.435,284.0,526.0
2015-03-08,Conakry,Guinea,-13.5784,9.6412,[-14.0784 9.1412 -13.0784 10.1412],0.527,0.162,0.857,0.525,0.419,0.064,0.754,0.42,295.0,496.0
2015-03-09,Conakry,Guinea,-13.5784,9.6412,[-14.0784 9.1412 -13.0784 10.1412],0.584,0.182,0.884,0.544,0.421,0.057,0.754,0.414,273.0,525.0
2015-03-10,Conakry,Guinea,-13.5784,9.6412,[-14.0784 9.1412 -13.0784 10.1412],0.504,0.082,0.849,0.479,0.401,0.024,0.758,0.407,249.0,498.0
2015-03-11,Conakry,Guinea,-13.5784,9.6412,[-14.0784 9.1412 -13.0784 10.1412],0.504,0.058,0.827,0.471,0.381,0.007,0.739,0.392,257.0,517.0
2015-03-12,Conakry,Guinea,-13.5784,9.6412,[-14.0784 9.1412 -13.0784 10.1412],0.505,0.082,0.814,0.454,0.399,0.013,0.755,0.411,250.0,508.0
2015-03-13,Conakry,Guinea,-13.5784,9.6412,[-14.0784 9.1412 -13.0784 10.1412],0.504,0.082,0.809,0.457,0.41,0.005,0.775,0.416,253.0,510.0
2015-03-14,Conakry,Guinea,-13.5784,9.6412,[-14.0784 9.1412 -13.0784 10.1412],0.514,0.082,0.814,0.471,0.434,0.034,0.79,0.442,234.0,488.0
2015-03-15,Conakry,Guinea,-13.5784,9.6412,[-14.0784 9.1412 -13.0784 10.1412],0.514,0.082,0.814,0.471,0.445,0.029,0.787,0.435,234.0,442.0
2015-03-16,Conakry,Guinea,-13.5784,9.6412,[-14.0784 9.1412 -13.0784 10.1412],0.505,0.058,0.832,0.458,0.435,0.028,0.785,0.435,221.0,471.0
2015-03-17,Conakry,Guinea,-13.5784,9.6412,[-14.0784 9.1412 -13.0784 10.1412],0.363,-0.004,0.787,0.391,0.414,-0.001,0.795,0.429,237.0,436.0
2015-03-18,Conakry,Guinea,-13.5784,9.6412,[-14.0784 9.1412 -13.0784 10.1412],0.317,-0.048,0.724,0.35,0.39,0.002,0.775,0.416,217.0,469.0
2015-03-19,Conakry,Guinea,-13.5784,9.6412,[-14.0784 9.1412 -13.0784 10.1412],0.205,-0.165,0.674,0.277,0.387,-0.015,0.797,0.416,205.0,446.0
2015-03-20,Conakry,Guinea,-13.5784,9.6412,[-14.0784 9.1412 -13.0784 10.1412],0.21,-0.165,0.668,0.252,0.341,-0.052,0.752,0.376,227.0,467.0
2015-03-21,Conakry,Guinea,-13.5784,9.6412,[-14.0784 9.1412 -13.0784 10.1412],0.188,-0.165,0.651,0.227,0.332,-0.043,0.749,0.373,212.0,462.0
2015-03-22,Conakry,Guinea,-13.5784,9.6412,[-14.0784 9.1412 -13.0784 10.1412],0.203,-0.165,0.668,0.231,0.345,-0.046,0.777,0.387,217.0,453.0
2015-03-23,Conakry,Guinea,-13.5784,9.6412,[-14.0784 9.1412 -13.0784 10.1412],0.203,-0.165,0.668,0.24,0.335,-0.046,0.773,0.386,228.0,470.0
2015-03-24,Conakry,Guinea,-13.5784,9.6412,[-14.0784 9.1412 -13.0784 10.1412],0.179,-0.14,0.651,0.233,0.338,-0.038,0.784,0.394,247.0,442.0
2015-03-25,Conakry,Guinea,-13.5784,9.6412,[-14.0784 9.1412 -13.0784 10.1412],0.269,-0.147,0.651,0.24,0.364,-0.028,0.791,0.411,232.0,471.0
2015-03-26,Conakry,Guinea,-13.5784,9.6412,[-14.0784 9.1412 -13.0784 10.1412],0.363,-0.042,0.656,0.29,0.374,-0.012,0.797,0.408,223.0,446.0
2015-03-27,Conakry,Guinea,-13.5784,9.6412,[-14.0784 9.1412 -13.0784 10.1412],0.309,-0.047,0.635,0.265,0.348,-0.007,0.752,0.386,238.0,467.0
2015-03-28,Conakry,Guinea,-13.5784,9.6412,[-14.0784 9.1412 -13.0784 10.1412],0.309,-0.042,0.627,0.258,0.346,-0.012,0.746,0.379,227.0,454.0
2015-03-29,Conakry,Guinea,-13.5784,9.6412,[-14.0784 9.1412 -13.0784 10.1412],0.309,-0.04,0.627,0.269,0.342,-0.015,0.718,0.374,257.0,492.0
2015-03-30,Conakry,Guinea,-13.5784,9.6412,[-14.0784 9.1412 -13.0784 10.1412],0.309,-0.034,0.635,0.288,0.327,-0.012,0.708,0.378,284.0,527.0
2015-03-31,Conakry,Guinea,-13.5784,9.6412,[-14.0784 9.1412 -13.0784 10.1412],0.33,-0.016,0.656,0.319,0.332,0.006,0.686,0.381,303.0,504.0
2015-04-01,Conakry,Guinea,-13.5784,9.6412,[-14.0784 9.1412 -13.0784 10.1412],0.367,0.05,0.693,0.36,0.365,0.033,0.724,0.423,287.0,531.0
2015-04-02,Conakry,Guinea,-13.5784,9.6412,[-14.0784 9.1412 -13.0784 10.1412],0.364,0.046,0.693,0.359,0.395,0.043,0.76,0.443,305.0,499.0
2015-04-03,Conakry,Guinea,-13.5784,9.6412,[-14.0784 9.1412 -13.0784 10.1412],0.389,0.077,0.709,0.408,0.407,0.069,0.761,0.465,285.0,531.0
2015-04-04,Conakry,Guinea,-13.5784,9.6412,[-14.0784 9.1412 -13.0784 10.1412],0.404,0.093,0.744,0.444,0.427,0.086,0.792,0.506,273.0,506.0
2015-04-05,Conakry,Guinea,-13.5784,9.6412,[-14.0784 9.1412 -13.0784 10.1412],0.404,0.104,0.752,0.479,0.443,0.098,0.808,0.544,297.0,524.0
2015-04-06,Conakry,Guinea,-13.5784,9.6412,[-14.0784 9.1412 -13.0784 10.1412],0.469,0.147,0.789,0.523,0.452,0.132,0.791,0.543,279.0,520.0
2015-04-07,Conakry,Guinea,-13.5784,9.6412,[-14.0784 9.1412 -13.0784 10.1412],0.47,0.152,0.789,0.564,0.463,0.138,0.812,0.57,280.0,511.0
2015-04-08,Conakry,Guinea,-13.5784,9.6412,[-14.0784 9.1412 -13.0784 10.1412],0.515,0.204,0.844,0.621,0.464,0.157,0.837,0.588,283.0,530.0
2015-04-09,Conakry,Guinea,-13.5784,9.6412,[-14.0784 9.1412 -13.0784 10.1412],0.515,0.166,0.844,0.622,0.484,0.15,0.842,0.606,301.0,500.0
2015-04-10,Conakry,Guinea,-13.5784,9.6412,[-14.0784 9.1412 -13.0784 10.1412],0.497,0.142,0.922,0.646,0.496,0.164,0.91,0.66,279.0,529.0
2015-04-11,Conakry,Guinea,-13.5784,9.6412,[-14.0784 9.1412 -13.0784 10.1412],0.556,0.25,0.937,0.687,0.518,0.192,0.96,0.738,263.0,504.0
2015-04-12,Conakry,Guinea,-13.5784,9.6412,[-14.0784 9.1412 -13.0784 10.1412],0.597,0.25,1.026,0.741,0.549,0.2,1.042,0.806,283.0,527.0
2015-04-13,Conakry,Guinea,-13.5784,9.6412,[-14.0784 9.1412 -13.0784 10.1412],0.607,0.255,1.053,0.77,0.575,0.221,1.094,0.846,276.0,518.0
2015-04-14,Conakry,Guinea,-13.5784,9.6412,[-14.0784 9.1412 -13.0784 10.1412],0.614,0.261,1.102,0.815,0.574,0.221,1.104,0.848,280.0,521.0
2015-04-15,Conakry,Guinea,-13.5784,9.6412,[-14.0784 9.1412 -13.0784 10.1412],0.615,0.255,1.175,0.826,0.601,0.226,1.201,0.911,261.0,497.0
2015-04-16,Conakry,Guinea,-13.5784,9.6412,[-14.0784 9.1412 -13.0784 10.1412],0.615,0.255,1.175,0.826,0.617,0.22,1.222,0.891,261.0,451.0
2015-04-17,Conakry,Guinea,-13.5784,9.6412,[-14.0784 9.1412 -13.0784 10.1412],0.68,0.304,1.18,0.887,0.586,0.229,1.207,0.901,243.0,476.0
2015-04-18,Conakry,Guinea,-13.5784,9.6412,[-14.0784 9.1412 -13.0784 10.1412],0.636,0.284,1.171,0.848,0.626,0.227,1.288,0.911,255.0,441.0
2015-04-19,Conakry,Guinea,-13.5784,9.6412,[-14.0784 9.1412 -13.0784 10.1412],0.615,0.272,1.14,0.857,0.701,0.257,1.306,0.941,235.0,475.0
2015-04-20,Conakry,Guinea,-13.5784,9.6412,[-14.0784 9.1412 -13.0784 10.1412],0.607,0.255,1.053,0.795,0.671,0.244,1.238,0.899,214.0,451.0
2015-04-21,Conakry,Guinea,-13.5784,9.6412,[-14.0784 9.1412 -13.0784 10.1412],0.562,0.217,0.967,0.744,0.698,0.259,1.236,0.914,239.0,468.0
2015-04-22,Conakry,Guinea,-13.5784,9.6412,[-14.0784 9.1412 -13.0784 10.1412],0.551,0.245,0.967,0.706,0.695,0.271,1.235,0.901,222.0,464.0
2015-04-23,Conakry,Guinea,-13.5784,9.6412,[-14.0784 9.1412 -13.0784 10.1412],0.562,0.25,1.053,0.732,0.668,0.265,1.19,0.885,227.0,452.0
2015-04-24,Conakry,Guinea,-13.5784,9.6412,[-14.0784 9.1412 -13.0784 10.1412],0.577,0.255,1.053,0.741,0.657,0.258,1.185,0.888,216.0,469.0
2015-04-25,Conakry,Guinea,-13.5784,9.6412,[-14.0784 9.1412 -13.0784 10.1412],0.577,0.25,1.053,0.744,0.658,0.252,1.147,0.858,233.0,438.0
2015-04-26,Conakry,Guinea,-13.5784,9.6412,[-14.0784 9.1412 -13.0784 10.1412],0.536,0.144,1.145,0.741,0.634,0.22,1.145,0.812,211.0,465.0
2015-04-27,Conakry,Guinea,-13.5784,9.6412,[-14.0784 9.1412 -13.0784 10.1412],0.539,0.201,0.974,0.673,0.615,0.233,1.103,0.761,189.0,439.0
2015-04-28,Conakry,Guinea,-13.5784,9.6412,[-14.0784 9.1412 -13.0784 10.1412],0.536,0.149,0.892,0.656,0.629,0.221,1.075,0.749,180.0,459.0
2015-04-29,Conakry,Guinea,-13.5784,9.6412,[-14.0784 9.1412 -13.0784 10.1412],0.523,0.144,0.892,0.602,0.638,0.243,1.094,0.761,156.0,450.0
2015-04-30,Conakry,Guinea,-13.5784,9.6412,[-14.0784 9.1412 -13.0784 10.1412],0.523,0.144,0.892,0.597,0.632,0.256,1.058,0.724,182.0,486.0
2015-05-01,Conakry,Guinea,-13.5784,9.6412,[-14.0784 9.1412 -13.0784 10.1412],0.504,0.108,0.892,0.581,0.625,0.248,1.077,0.728,209.0,521.0
2015-05-02,Conakry,Guinea,-13.5784,9.6412,[-14.0784 9.1412 -13.0784 10.1412],0.454,0.033,0.871,0.554,0.609,0.234,1.036,0.703,222.0,499.0
2015-05-03,Conakry,Guinea,-13.5784,9.6412,[-14.0784 9.1412 -13.0784 10.1412],0.449,0.021,0.892,0.555,0.609,0.237,1.043,0.695,210.0,526.0
2015-05-04,Conakry,Guinea,-13.5784,9.6412,[-14.0784 9.1412 -13.0784 10.1412],0.523,0.098,0.813,0.561,0.57,0.223,0.948,0.645,221.0,491.0
2015-05-05,Conakry,Guinea,-13.5784,9.6412,[-14.0784 9.1412 -13.0784 10.1412],0.541,0.207,0.873,0.606,0.585,0.266,0.949,0.658,208.0,524.0
2015-05-06,Conakry,Guinea,-13.5784,9.6412,[-14.0784 9.1412 -13.0784 10.1412],0.565,0.273,0.873,0.621,0.569,0.272,0.934,0.653,192.0,502.0
2015-05-07,Conakry,Guinea,-13.5784,9.6412,[-14.0784 9.1412 -13.0784 10.1412],0.565,0.291,0.892,0.638,0.591,0.264,0.949,0.659,221.0,518.0
2015-05-08,Conakry,Guinea,-13.5784,9.6412,[-14.0784 9.1412 -13.0784 10.1412],0.558,0.288,0.842,0.591,0.584,0.281,0.928,0.645,209.0,516.0
2015-05-09,Conakry,Guinea,-13.5784,9.6412,[-14.0784 9.1412 -13.0784 10.1412],0.539,0.26,0.79,0.572,0.576,0.277,0.916,0.63,228.0,508.0
2015-05-10,Conakry,Guinea,-13.5784,9.6412,[-14.0784 9.1412 -13.0784 10.1412],0.546,0.291,0.79,0.567,0.571,0.271,0.915,0.623,227.0,524.0
2015-05-11,Conakry,Guinea,-13.5784,9.6412,[-14.0784 9.1412 -13.0784 10.1412],0.546,0.291,0.813,0.568,0.577,0.276,0.915,0.622,237.0,495.0
2015-05-12,Conakry,Guinea,-13.5784,9.6412,[-14.0784 9.1412 -13.0784 10.1412],0.558,0.236,0.814,0.563,0.584,0.268,0.914,0.615,219.0,525.0
2015-05-13,Conakry,Guinea,-13.5784,9.6412,[-14.0784 9.1412 -13.0784 10.1412],0.495,0.304,0.747,0.526,0.569,0.279,0.884,0.604,227.0,500.0
2015-05-14,Conakry,Guinea,-13.5784,9.6412,[-14.0784 9.1412 -13.0784 10.1412],0.495,0.299,0.747,0.535,0.567,0.273,0.886,0.604,251.0,522.0
2015-05-15,Conakry,Guinea,-13.5784,9.6412,[-14.0784 9.1412 -13.0784 10.1412],0.5,0.283,0.772,0.54,0.563,0.262,0.888,0.601,248.0,516.0
2015-05-16,Conakry,Guinea,-13.5784,9.6412,[-14.0784 9.1412 -13.0784 10.1412],0.5,0.288,0.772,0.547,0.542,0.247,0.863,0.575,226.0,517.0
2015-05-17,Conakry,Guinea,-13.5784,9.6412,[-14.0784 9.1412 -13.0784 10.1412],0.502,0.309,0.786,0.572,0.528,0.247,0.878,0.578,213.0,493.0
2015-05-18,Conakry,Guinea,-13.5784,9.6412,[-14.0784 9.1412 -13.0784 10.1412],0.502,0.309,0.786,0.572,0.523,0.246,0.849,0.567,213.0,449.0
2015-05-19,Conakry,Guinea,-13.5784,9.6412,[-14.0784 9.1412 -13.0784 10.1412],0.491,0.288,0.817,0.568,0.515,0.229,0.86,0.559,202.0,476.0
2015-05-20,Conakry,Guinea,-13.5784,9.6412,[-14.0784 9.1412 -13.0784 10.1412],0.479,0.242,0.786,0.545,0.504,0.204,0.846,0.546,214.0,442.0
2015-05-21,Conakry,Guinea,-13.5784,9.6412,[-14.0784 9.1412 -13.0784 10.1412],0.479,0.242,0.768,0.538,0.495,0.197,0.85,0.537,195.0,474.0
2015-05-22,Conakry,Guinea,-13.5784,9.6412,[-14.0784 9.1412 -13.0784 10.1412],0.465,0.242,0.747,0.516,0.489,0.184,0.844,0.523,160.0,451.0
2015-05-23,Conakry,Guinea,-13.5784,9.6412,[-14.0784 9.1412 -13.0784 10.1412],0.465,0.229,0.726,0.504,0.48,0.183,0.827,0.523,179.0,467.0
2015-05-24,Conakry,Guinea,-13.5784,9.6412,[-14.0784 9.1412 -13.0784 10.1412],0.5,0.242,0.786,0.532,0.473,0.178,0.825,0.516,166.0,463.0
2015-05-25,Conakry,Guinea,-13.5784,9.6412,[-14.0784 9.1412 -13.0784 10.1412],0.479,0.242,0.74,0.515,0.472,0.18,0.815,0.513,155.0,455.0
2015-05-26,Conakry,Guinea,-13.5784,9.6412,[-14.0784 9.1412 -13.0784 10.1412],0.479,0.235,0.726,0.486,0.473,0.174,0.814,0.501,152.0,469.0
2015-05-27,Conakry,Guinea,-13.5784,9.6412,[-14.0784 9.1412 -13.0784 10.1412],0.46,0.229,0.704,0.482,0.432,0.156,0.799,0.482,153.0,438.0
2015-05-28,Conakry,Guinea,-13.5784,9.6412,[-14.0784 9.1412 -13.0784 10.1412],0.535,0.171,0.834,0.511,0.442,0.144,0.807,0.478,131.0,467.0
2015-05-29,Conakry,Guinea,-13.5784,9.6412,[-14.0784 9.1412 -13.0784 10.1412],0.341,0.154,0.679,0.396,0.381,0.135,0.746,0.435,109.0,438.0
2015-05-30,Conakry,Guinea,-13.5784,9.6412,[-14.0784 9.1412 -13.0784 10.1412],0.313,-0.005,0.651,0.375,0.362,0.089,0.711,0.414,121.0,459.0
2015-05-31,Conakry,Guinea,-13.5784,9.6412,[-14.0784 9.1412 -13.0784 10.1412],0.341,0.069,0.651,0.379,0.392,0.087,0.731,0.428,140.0,453.0
2015-06-01,Conakry,Guinea,-13.5784,9.6412,[-14.0784 9.1412 -13.0784 10.1412],0.341,0.048,0.65,0.372,0.394,0.104,0.734,0.434,144.0,490.0
2015-06-02,Conakry,Guinea,-13.5784,9.6412,[-14.0784 9.1412 -13.0784 10.1412],0.341,0.048,0.65,0.371,0.405,0.108,0.744,0.439,145.0,524.0
2015-06-03,Conakry,Guinea,-13.5784,9.6412,[-14.0784 9.1412 -13.0784 10.1412],0.343,0.112,0.658,0.397,0.43,0.112,0.744,0.439,159.0,500.0
2015-06-04,Conakry,Guinea,-13.5784,9.6412,[-14.0784 9.1412 -13.0784 10.1412],0.343,0.112,0.736,0.401,0.448,0.114,0.765,0.443,147.0,527.0
2015-06-05,Conakry,Guinea,-13.5784,9.6412,[-14.0784 9.1412 -13.0784 10.1412],0.324,0.098,0.613,0.373,0.418,0.102,0.707,0.418,159.0,493.0
2015-06-06,Conakry,Guinea,-13.5784,9.6412,[-14.0784 9.1412 -13.0784 10.1412],0.324,0.098,0.613,0.373,0.421,0.13,0.691,0.425,159.0,527.0
2015-06-07,Conakry,Guinea,-13.5784,9.6412,[-14.0784 9.1412 -13.0784 10.1412],0.313,0.098,0.587,0.354,0.394,0.132,0.701,0.425,125.0,504.0
2015-06-08,Conakry,Guinea,-13.5784,9.6412,[-14.0784 9.1412 -13.0784 10.1412],0.3,-0.044,0.565,0.337,0.398,0.124,0.693,0.421,131.0,521.0
2015-06-09,Conakry,Guinea,-13.5784,9.6412,[-14.0784 9.1412 -13.0784 10.1412],0.3,-0.018,0.565,0.331,0.395,0.112,0.666,0.406,129.0,517.0
2015-06-10,Conakry,Guinea,-13.5784,9.6412,[-14.0784 9.1412 -13.0784 10.1412],0.324,0.035,0.565,0.352,0.403,0.126,0.665,0.409,148.0,511.0
2015-06-11,Conakry,Guinea,-13.5784,9.6412,[-14.0784 9.1412 -13.0784 10.1412],0.341,0.082,0.587,0.374,0.412,0.147,0.687,0.426,159.0,529.0
2015-06-12,Conakry,Guinea,-13.5784,9.6412,[-14.0784 9.1412 -13.0784 10.1412],0.341,0.082,0.587,0.374,0.404,0.144,0.682,0.417,159.0,499.0
2015-06-13,Conakry,Guinea,-13.5784,9.6412,[-14.0784 9.1412 -13.0784 10.1412],0.398,0.102,0.717,0.422,0.41,0.148,0.708,0.426,150.0,528.0
2015-06-14,Conakry,Guinea,-13.5784,9.6412,[-14.0784 9.1412 -13.0784 10.1412],0.324,0.112,0.565,0.367,0.402,0.175,0.677,0.428,136.0,501.0
2015-06-15,Conakry,Guinea,-13.5784,9.6412,[-14.0784 9.1412 -13.0784 10.1412],0.304,0.112,0.529,0.38,0.388,0.14,0.661,0.416,133.0,522.0
2015-06-16,Conakry,Guinea,-13.5784,9.6412,[-14.0784 9.1412 -13.0784 10.1412],0.324,0.114,0.548,0.386,0.387,0.131,0.657,0.413,144.0,514.0
2015-06-17,Conakry,Guinea,-13.5784,9.6412,[-14.0784 9.1412 -13.0784 10.1412],0.324,0.114,0.57,0.384,0.38,0.12,0.655,0.408,155.0,518.0
2015-06-18,Conakry,Guinea,-13.5784,9.6412,[-14.0784 9.1412 -13.0784 10.1412],0.306,0.063,0.548,0.36,0.373,0.101,0.657,0.405,141.0,496.0
2015-06-19,Conakry,Guinea,-13.5784,9.6412,[-14.0784 9.1412 -13.0784 10.1412],0.306,0.063,0.548,0.36,0.392,0.12,0.671,0.415,141.0,450.0
2015-06-20,Conakry,Guinea,-13.5784,9.6412,[-14.0784 9.1412 -13.0784 10.1412],0.368,0.093,0.635,0.384,0.413,0.106,0.7,0.427,129.0,477.0
2015-06-21,Conakry,Guinea,-13.5784,9.6412,[-14.0784 9.1412 -13.0784 10.1412],0.369,0.13,0.561,0.381,0.413,0.117,0.686,0.429,134.0,441.0